#timestamp,LO_Frequency,Hit,StdDev 
1619906415.6,286047000.1,N
1619906435.4,286047000.4,N
1619906455.3,286047000.6,N
1619906475.1,286047000.6,N
1619906495.8,286047001.9,N
1619906515.7,286047001.6,N
1619906535.5,286047003.7,N
1619906555.4,286047004.1,N
1619906575.2,286047004.0,N
1619906595.0,286047002.5,N
1619906595.9,286047002.5,N
1619906615.8,286047002.0,N
1619906635.6,286047002.6,N
1619906655.5,286047001.3,N
1619906675.3,286047003.7,N
1619906695.1,286047004.1,N
1619906715.9,286047003.6,N
1619906735.7,286047004.0,N
1619906755.5,286047002.1,N
1619906775.4,286047002.5,N
1619906795.2,286047002.1,N
1619906815.0,286047002.5,N
1619906816.0,286047002.5,N
1619906835.8,286047002.2,N
1619906855.6,286047001.6,N
1619906875.5,286047002.9,N
1619906895.3,286047004.0,Y
1619906915.1,286047000.8,P
1619906935.9,286046999.8,N
1619906955.7,286047000.9,N
1619906975.6,286047000.8,N
1619906995.4,286046998.8,N
1619907015.2,286046999.3,N
1619907035.1,286046999.8,N
1619907036.0,286046999.8,N
1619907055.8,286047001.4,N
1619907075.6,286047001.7,N
1619907095.5,286047002.5,N
1619907115.3,286047000.5,N
1619907135.1,286047001.2,N
1619907155.9,286046998.1,N
1619907175.7,286046998.8,N
1619907195.6,286047001.0,N
1619907215.4,286047001.1,N
1619907235.2,286046999.9,N
1619907255.1,286047000.9,N
1619907256.0,286047000.9,N
1619907275.8,286047000.2,N
1619907295.7,286047000.4,N
1619907315.5,286046998.2,N
1619907335.3,286047000.8,N
1619907355.2,286046998.7,N
1619907375.9,286046999.4,N
1619907395.7,286046998.2,N
1619907415.6,286046999.1,N
1619907435.4,286046997.7,N
1619907455.2,286046997.0,N
1619907475.1,286046999.5,N
1619907476.0,286046999.5,N
1619907495.8,286046998.4,N
1619907515.7,286046998.2,N
1619907535.5,286046998.3,N
1619907555.3,286046999.0,N
1619907575.2,286046998.8,N
1619907595.0,286046999.5,N
1619907595.9,286046999.5,N
1619907615.7,286046998.8,N
1619907635.6,286046999.3,N
1619907655.4,286046997.0,N
1619907675.3,286046997.2,N
1619907695.1,286046997.6,N
1619907696.0,286046997.6,N
1619907715.8,286046997.6,N
1619907735.7,286046997.0,N
1619907755.5,286046999.5,N
1619907775.3,286046996.9,N
1619907795.2,286046998.9,N
1619907815.0,286046999.1,N
1619907815.9,286046999.1,N
1619907835.8,286047001.2,N
1619907855.6,286047000.4,N
1619907875.4,286047001.3,N
1619907895.3,286047003.8,Y
1619907915.1,286047004.8,P
1619907935.9,286047005.7,N
1619907955.7,286047005.6,N
1619907975.5,286047004.9,N
1619907995.4,286047005.4,N
1619908015.2,286047007.6,Y
1619908035.0,286047002.7,P
1619908035.9,286047002.7,P
1619908055.8,286047001.3,N
1619908075.6,286047001.3,N
1619908095.5,286047003.8,Y
1619908115.3,286047000.5,P
1619908135.1,286047002.4,N
1619908155.9,286047002.8,P
1619908175.7,286047002.5,N
1619908195.5,286046999.8,N
1619908215.4,286047002.7,N
1619908235.2,286047001.7,N
1619908255.1,286047002.7,N
1619908256.0,286047002.7,N
1619908275.8,286047000.3,N
1619908295.6,286046999.9,N
1619908315.5,286046999.8,N
1619908335.3,286047002.8,N
1619908355.1,286046999.9,N
1619908375.9,286047002.5,N
1619908395.7,286047001.7,N
1619908415.6,286047004.4,Y
1619908435.4,286046999.7,P
1619908485.3,286046998.3,E
1619908495.2,286047002.3,N
1619908515.0,286047001.5,P
1619908515.9,286047001.5,P
1619908535.8,286047002.4,Y
1619908555.6,286046998.5,P
1619908575.4,286046999.4,N
1619908595.3,286046998.8,N
1619908615.1,286047011.9,Y
1619908635.9,286046997.0,P
1619908655.7,286046999.2,N
1619908675.5,286046999.4,N
1619908695.4,286046996.5,Y
1619908715.2,286046999.3,P
1619908735.0,286046996.9,P
1619908736.0,286046996.9,P
1619908755.8,286046996.6,Y
1619908775.6,286046998.4,P
1619908795.5,286046996.6,P
1619908815.3,286046999.2,N
1619908835.1,286046998.2,N
1619908855.9,286046998.1,N
1619908875.7,286047000.0,N
1619908895.6,286046998.2,N
1619908915.4,286046999.0,N
1619908935.2,286046999.1,N
1619908955.1,286046999.1,N
1619908956.0,286046999.1,N
1619908975.8,286046996.5,Y
1619908995.6,286046998.6,P
1619909015.5,286046998.1,P
1619909035.3,286047000.5,N
1619909055.2,286047001.1,N
1619909075.9,286047001.1,N
1619909095.7,286047001.0,N
1619909115.6,286047001.0,N
1619909135.4,286047000.2,N
1619909155.2,286047001.3,N
1619909175.1,286047002.6,N
1619909176.0,286047002.6,N
1619909195.8,286047002.3,N
1619909215.7,286047000.5,N
1619909235.5,286047000.9,N
1619909255.3,286047000.7,N
1619909275.2,286047000.6,N
1619909295.0,286047001.1,N
1619909295.9,286047001.1,N
1619909315.8,286046996.5,N
1619909335.6,286046997.7,N
1619909355.4,286046997.8,N
1619909375.3,286046995.1,Y
1619909395.1,286046995.5,P
1619909415.8,286046995.1,N
1619909435.7,286046995.9,N
1619909455.5,286046997.9,N
1619909475.4,286046997.8,N
1619909495.2,286046997.6,N
1619909515.0,286046997.9,N
1619909515.9,286046997.9,N
1619909535.8,286046996.0,N
1619909555.6,286046993.4,Y
1619909575.4,286046996.9,P
1619909595.3,286046996.9,P
1619909615.1,286046997.8,P
1619909635.9,286046995.5,Y
1619909655.7,286046998.3,P
1619909675.5,286046998.8,N
1619909695.4,286046999.5,N
1619909715.2,286046999.3,N
1619909735.1,286046998.7,N
1619909736.0,286046998.7,N
1619909755.8,286046999.1,N
1619909775.6,286046996.9,Y
1619909795.5,286047001.0,P
1619909815.3,286047000.5,N
1619909835.1,286047000.6,N
1619909855.9,286047000.1,N
1619909875.7,286047000.7,N
1619909895.6,286047000.2,N
1619909915.4,286047000.5,N
1619909935.2,286047000.5,N
1619909955.1,286047000.8,N
1619909956.0,286047000.8,N
1619909975.8,286047001.2,N
1619909995.6,286047000.8,N
